owner,sensor,date,latitude,longitude,vertical_datum,wind_speed,wind_to_direction,wind_speed_of_gust,qcFlag 
ADCP,ioos:station:wmo:42887:1,2013-11-01T00:00:00Z,28.1910,-88.4960,48.2,7.9,163.0,99.0,'11111222,11111222,11144222' 
ADCP,ioos:station:wmo:42887:1,2013-11-01T00:20:00Z,28.1910,-88.4960,48.2,7.2,168.0,99.0,'11111222,11111222,11144222' 
ADCP,ioos:station:wmo:42887:1,2013-11-01T00:40:00Z,28.1910,-88.4960,48.2,6.5,174.0,99.0,'11111222,11111222,11144222' 
ADCP,ioos:station:wmo:42887:1,2013-11-01T01:00:00Z,28.1910,-88.4960,48.2,7.5,175.0,99.0,'11111222,11111222,11144222' 
ADCP,ioos:station:wmo:42887:1,2013-11-01T01:20:00Z,28.1910,-88.4960,48.2,7.5,173.0,99.0,'11111222,11111222,11144222' 
ADCP,ioos:station:wmo:42887:1,2013-11-01T01:40:00Z,28.1910,-88.4960,48.2,7.2,174.0,99.0,'11111222,11111222,11144222' 
ADCP,ioos:station:wmo:42887:1,2013-11-01T02:00:00Z,28.1910,-88.4960,48.2,7.7,174.0,99.0,'11111222,11111222,11144222' 
ADCP,ioos:station:wmo:42887:1,2013-11-01T02:20:00Z,28.1910,-88.4960,48.2,6.4,164.0,99.0,'11111222,11111222,11144222' 
ADCP,ioos:station:wmo:42887:1,2013-11-01T02:40:00Z,28.1910,-88.4960,48.2,7.5,160.0,99.0,'11111222,11111222,11144222' 
ADCP,ioos:station:wmo:42887:1,2013-11-01T03:00:00Z,28.1910,-88.4960,48.2,6.3,167.0,99.0,'11111222,11111222,11144222' 
ADCP,ioos:station:wmo:42887:1,2013-11-01T03:20:00Z,28.1910,-88.4960,48.2,8.4,174.0,99.0,'11111222,11111222,11144222' 
ADCP,ioos:station:wmo:42887:1,2013-11-01T03:40:00Z,28.1910,-88.4960,48.2,7.9,176.0,99.0,'11111222,11111222,11144222' 
ADCP,ioos:station:wmo:42887:1,2013-11-01T04:00:00Z,28.1910,-88.4960,48.2,8.3,180.0,99.0,'11111222,11111222,11144222' 
ADCP,ioos:station:wmo:42887:1,2013-11-01T04:20:00Z,28.1910,-88.4960,48.2,8.8,177.0,99.0,'11111222,11111222,11144222' 
ADCP,ioos:station:wmo:42887:1,2013-11-01T04:40:00Z,28.1910,-88.4960,48.2,5.7,172.0,99.0,'11111222,11111222,11144222' 
ADCP,ioos:station:wmo:42887:1,2013-11-01T05:00:00Z,28.1910,-88.4960,48.2,7.2,177.0,99.0,'11111222,11111222,11144222' 
ADCP,ioos:station:wmo:42887:1,2013-11-01T05:20:00Z,28.1910,-88.4960,48.2,5.8,195.0,99.0,'11111222,11111222,11144222' 
ADCP,ioos:station:wmo:42887:1,2013-11-01T05:40:00Z,28.1910,-88.4960,48.2,5.2,181.0,99.0,'11111222,11111222,11144222' 
ADCP,ioos:station:wmo:42887:1,2013-11-01T06:00:00Z,28.1910,-88.4960,48.2,6.2,180.0,99.0,'11111222,11111222,11144222' 
ADCP,ioos:station:wmo:42887:1,2013-11-01T06:20:00Z,28.1910,-88.4960,48.2,7.9,184.0,99.0,'11111222,11111222,11144222' 
ADCP,ioos:station:wmo:42887:1,2013-11-01T06:40:00Z,28.1910,-88.4960,48.2,9.5,183.0,99.0,'11111222,11111222,11144222' 
ADCP,ioos:station:wmo:42887:1,2013-11-01T07:00:00Z,28.1910,-88.4960,48.2,8.8,186.0,99.0,'11111222,11111222,11144222' 
ADCP,ioos:station:wmo:42887:1,2013-11-01T07:20:00Z,28.1910,-88.4960,48.2,9.1,189.0,99.0,'11111222,11111222,11144222' 
ADCP,ioos:station:wmo:42887:1,2013-11-01T07:40:00Z,28.1910,-88.4960,48.2,9.8,182.0,99.0,'11111222,11111222,11144222' 
ADCP,ioos:station:wmo:42887:1,2013-11-01T08:00:00Z,28.1910,-88.4960,48.2,9.6,176.0,99.0,'11111222,11111222,11144222' 
ADCP,ioos:station:wmo:42887:1,2013-11-01T08:20:00Z,28.1910,-88.4960,48.2,8.9,176.0,99.0,'11111222,11111222,11144222' 
ADCP,ioos:station:wmo:42887:1,2013-11-01T08:40:00Z,28.1910,-88.4960,48.2,9.6,185.0,99.0,'11111222,11111222,11144222' 
ADCP,ioos:station:wmo:42887:1,2013-11-01T09:00:00Z,28.1910,-88.4960,48.2,10.3,180.0,99.0,'11111222,11111222,11144222' 
ADCP,ioos:station:wmo:42887:1,2013-11-01T09:20:00Z,28.1910,-88.4960,48.2,10.4,175.0,99.0,'11111222,11111222,11144222' 
ADCP,ioos:station:wmo:42887:1,2013-11-01T09:40:00Z,28.1910,-88.4960,48.2,12.6,178.0,99.0,'11111222,11111222,11144222' 
ADCP,ioos:station:wmo:42887:1,2013-11-01T10:00:00Z,28.1910,-88.4960,48.2,13.3,177.0,99.0,'11111222,11111222,11144222' 
ADCP,ioos:station:wmo:42887:1,2013-11-01T10:20:00Z,28.1910,-88.4960,48.2,13.4,181.0,99.0,'11111222,11111222,11144222' 
ADCP,ioos:station:wmo:42887:1,2013-11-01T10:40:00Z,28.1910,-88.4960,48.2,10.7,181.0,99.0,'11111222,11111222,11144222' 
ADCP,ioos:station:wmo:42887:1,2013-11-01T11:00:00Z,28.1910,-88.4960,48.2,13.5,181.0,99.0,'11111222,11111222,11144222' 
ADCP,ioos:station:wmo:42887:1,2013-11-01T11:20:00Z,28.1910,-88.4960,48.2,12.7,173.0,99.0,'11111222,11111222,11144222' 
ADCP,ioos:station:wmo:42887:1,2013-11-01T11:40:00Z,28.1910,-88.4960,48.2,10.6,176.0,99.0,'11111222,11111222,11144222' 
ADCP,ioos:station:wmo:42887:1,2013-11-01T12:00:00Z,28.1910,-88.4960,48.2,8.9,182.0,99.0,'11111222,11111222,11144222' 
ADCP,ioos:station:wmo:42887:1,2013-11-01T12:20:00Z,28.1910,-88.4960,48.2,7.6,198.0,99.0,'11111222,11111222,11144222' 
ADCP,ioos:station:wmo:42887:1,2013-11-01T12:40:00Z,28.1910,-88.4960,48.2,10.7,191.0,99.0,'11111222,11111222,11144222' 
ADCP,ioos:station:wmo:42887:1,2013-11-01T13:00:00Z,28.1910,-88.4960,48.2,11.0,193.0,99.0,'11111222,11111222,11144222' 
ADCP,ioos:station:wmo:42887:1,2013-11-01T13:20:00Z,28.1910,-88.4960,48.2,9.0,188.0,99.0,'11111222,11111222,11144222' 
ADCP,ioos:station:wmo:42887:1,2013-11-01T13:40:00Z,28.1910,-88.4960,48.2,9.1,199.0,99.0,'11111222,11111222,11144222' 
ADCP,ioos:station:wmo:42887:1,2013-11-01T14:00:00Z,28.1910,-88.4960,48.2,9.4,197.0,99.0,'11111222,11111222,11144222' 
ADCP,ioos:station:wmo:42887:1,2013-11-01T14:20:00Z,28.1910,-88.4960,48.2,10.4,190.0,99.0,'11111222,11111222,11144222' 
ADCP,ioos:station:wmo:42887:1,2013-11-01T14:40:00Z,28.1910,-88.4960,48.2,10.5,190.0,99.0,'11111222,11111222,11144222' 
ADCP,ioos:station:wmo:42887:1,2013-11-01T15:00:00Z,28.1910,-88.4960,48.2,10.3,191.0,99.0,'11111222,11111222,11144222' 
ADCP,ioos:station:wmo:42887:1,2013-11-01T15:20:00Z,28.1910,-88.4960,48.2,8.6,178.0,99.0,'11111222,11111222,11144222' 
ADCP,ioos:station:wmo:42887:1,2013-11-01T15:40:00Z,28.1910,-88.4960,48.2,8.8,205.0,99.0,'11111222,11111222,11144222' 
ADCP,ioos:station:wmo:42887:1,2013-11-01T16:00:00Z,28.1910,-88.4960,48.2,9.7,207.0,99.0,'11111222,11111222,11144222' 
ADCP,ioos:station:wmo:42887:1,2013-11-01T16:20:00Z,28.1910,-88.4960,48.2,8.7,201.0,99.0,'11111222,11111222,11144222' 
ADCP,ioos:station:wmo:42887:1,2013-11-01T16:40:00Z,28.1910,-88.4960,48.2,10.3,194.0,99.0,'11111222,11111222,11144222' 
ADCP,ioos:station:wmo:42887:1,2013-11-01T17:00:00Z,28.1910,-88.4960,48.2,7.7,198.0,99.0,'11111222,11111222,11144222' 
ADCP,ioos:station:wmo:42887:1,2013-11-01T17:20:00Z,28.1910,-88.4960,48.2,8.3,190.0,99.0,'11111222,11111222,11144222' 
ADCP,ioos:station:wmo:42887:1,2013-11-01T17:40:00Z,28.1910,-88.4960,48.2,13.6,222.0,99.0,'11111222,11111222,11144222' 
ADCP,ioos:station:wmo:42887:1,2013-11-01T18:00:00Z,28.1910,-88.4960,48.2,11.0,197.0,99.0,'11111222,11111222,11144222' 
ADCP,ioos:station:wmo:42887:1,2013-11-01T18:20:00Z,28.1910,-88.4960,48.2,7.3,204.0,99.0,'11111222,11111222,11144222' 
ADCP,ioos:station:wmo:42887:1,2013-11-01T18:40:00Z,28.1910,-88.4960,48.2,6.8,246.0,99.0,'11111222,11111222,11144222' 
ADCP,ioos:station:wmo:42887:1,2013-11-01T19:00:00Z,28.1910,-88.4960,48.2,6.0,240.0,99.0,'11111222,11111222,11144222' 
ADCP,ioos:station:wmo:42887:1,2013-11-01T19:20:00Z,28.1910,-88.4960,48.2,8.6,231.0,99.0,'11111222,11111222,11144222' 
ADCP,ioos:station:wmo:42887:1,2013-11-01T19:40:00Z,28.1910,-88.4960,48.2,8.0,264.0,99.0,'11111222,11111222,11144222' 
ADCP,ioos:station:wmo:42887:1,2013-11-01T20:00:00Z,28.1910,-88.4960,48.2,7.7,268.0,99.0,'11111222,11111222,11144222' 
ADCP,ioos:station:wmo:42887:1,2013-11-01T20:20:00Z,28.1910,-88.4960,48.2,6.4,255.0,99.0,'11111222,11111222,11144222' 
ADCP,ioos:station:wmo:42887:1,2013-11-01T20:40:00Z,28.1910,-88.4960,48.2,6.8,256.0,99.0,'11111222,11111222,11144222' 
ADCP,ioos:station:wmo:42887:1,2013-11-01T21:00:00Z,28.1910,-88.4960,48.2,6.8,301.0,99.0,'11111222,11111222,11144222' 
ADCP,ioos:station:wmo:42887:1,2013-11-01T21:20:00Z,28.1910,-88.4960,48.2,5.6,324.0,99.0,'11111222,11111222,11144222' 
ADCP,ioos:station:wmo:42887:1,2013-11-01T21:40:00Z,28.1910,-88.4960,48.2,5.3,311.0,99.0,'11111222,11111222,11144222' 
ADCP,ioos:station:wmo:42887:1,2013-11-01T22:00:00Z,28.1910,-88.4960,48.2,6.0,319.0,99.0,'11111222,11111222,11144222' 
ADCP,ioos:station:wmo:42887:1,2013-11-01T22:20:00Z,28.1910,-88.4960,48.2,5.3,313.0,99.0,'11111222,11111222,11144222' 
ADCP,ioos:station:wmo:42887:1,2013-11-01T22:40:00Z,28.1910,-88.4960,48.2,5.3,323.0,99.0,'11111222,11111222,11144222' 
ADCP,ioos:station:wmo:42887:1,2013-11-01T23:00:00Z,28.1910,-88.4960,48.2,5.9,299.0,99.0,'11111222,11111222,11144222' 
ADCP,ioos:station:wmo:42887:1,2013-11-01T23:20:00Z,28.1910,-88.4960,48.2,5.4,317.0,99.0,'11111222,11111222,11144222' 
ADCP,ioos:station:wmo:42887:1,2013-11-01T23:40:00Z,28.1910,-88.4960,48.2,5.8,305.0,99.0,'11111222,11111222,11144222' 
ADCP,ioos:station:wmo:42887:1,2013-11-02T00:00:00Z,28.1910,-88.4960,48.2,6.8,287.0,99.0,'11111222,11111222,11144222' 
ADCP,ioos:station:wmo:42887:1,2013-11-02T00:20:00Z,28.1910,-88.4960,48.2,6.4,296.0,99.0,'11111222,11111222,11144222' 
ADCP,ioos:station:wmo:42887:1,2013-11-02T00:40:00Z,28.1910,-88.4960,48.2,6.1,285.0,99.0,'11111222,11111222,11144222' 
ADCP,ioos:station:wmo:42887:1,2013-11-02T01:00:00Z,28.1910,-88.4960,48.2,5.8,291.0,99.0,'11111222,11111222,11144222' 
ADCP,ioos:station:wmo:42887:1,2013-11-02T01:20:00Z,28.1910,-88.4960,48.2,5.8,311.0,99.0,'11111222,11111222,11144222' 
ADCP,ioos:station:wmo:42887:1,2013-11-02T01:40:00Z,28.1910,-88.4960,48.2,7.2,295.0,99.0,'11111222,11111222,11144222' 
ADCP,ioos:station:wmo:42887:1,2013-11-02T02:00:00Z,28.1910,-88.4960,48.2,8.0,309.0,99.0,'11111222,11111222,11144222' 
ADCP,ioos:station:wmo:42887:1,2013-11-02T02:20:00Z,28.1910,-88.4960,48.2,7.6,307.0,99.0,'11111222,11111222,11144222' 
ADCP,ioos:station:wmo:42887:1,2013-11-02T02:40:00Z,28.1910,-88.4960,48.2,7.1,311.0,99.0,'11111222,11111222,11144222' 
ADCP,ioos:station:wmo:42887:1,2013-11-02T03:00:00Z,28.1910,-88.4960,48.2,7.3,311.0,99.0,'11111222,11111222,11144222' 
ADCP,ioos:station:wmo:42887:1,2013-11-02T03:20:00Z,28.1910,-88.4960,48.2,6.2,321.0,99.0,'11111222,11111222,11144222' 
ADCP,ioos:station:wmo:42887:1,2013-11-02T03:40:00Z,28.1910,-88.4960,48.2,6.5,314.0,99.0,'11111222,11111222,11144222' 
ADCP,ioos:station:wmo:42887:1,2013-11-02T04:00:00Z,28.1910,-88.4960,48.2,6.6,327.0,99.0,'11111222,11111222,11144222' 
ADCP,ioos:station:wmo:42887:1,2013-11-02T04:20:00Z,28.1910,-88.4960,48.2,6.0,326.0,99.0,'11111222,11111222,11144222' 
ADCP,ioos:station:wmo:42887:1,2013-11-02T04:40:00Z,28.1910,-88.4960,48.2,7.3,321.0,99.0,'11111222,11111222,11144222' 
ADCP,ioos:station:wmo:42887:1,2013-11-02T05:00:00Z,28.1910,-88.4960,48.2,6.4,317.0,99.0,'11111222,11111222,11144222' 
ADCP,ioos:station:wmo:42887:1,2013-11-02T05:20:00Z,28.1910,-88.4960,48.2,6.3,326.0,99.0,'11111222,11111222,11144222' 
ADCP,ioos:station:wmo:42887:1,2013-11-02T05:40:00Z,28.1910,-88.4960,48.2,6.6,319.0,99.0,'11111222,11111222,11144222' 
ADCP,ioos:station:wmo:42887:1,2013-11-02T06:00:00Z,28.1910,-88.4960,48.2,6.9,325.0,99.0,'11111222,11111222,11144222' 
ADCP,ioos:station:wmo:42887:1,2013-11-02T06:20:00Z,28.1910,-88.4960,48.2,7.1,330.0,99.0,'11111222,11111222,11144222' 
ADCP,ioos:station:wmo:42887:1,2013-11-02T06:40:00Z,28.1910,-88.4960,48.2,7.0,329.0,99.0,'11111222,11111222,11144222' 
ADCP,ioos:station:wmo:42887:1,2013-11-02T07:00:00Z,28.1910,-88.4960,48.2,6.0,326.0,99.0,'11111222,11111222,11144222' 
ADCP,ioos:station:wmo:42887:1,2013-11-02T07:20:00Z,28.1910,-88.4960,48.2,6.0,330.0,99.0,'11111222,11111222,11144222' 
ADCP,ioos:station:wmo:42887:1,2013-11-02T07:40:00Z,28.1910,-88.4960,48.2,7.0,344.0,99.0,'11111222,11111222,11144222' 
ADCP,ioos:station:wmo:42887:1,2013-11-02T08:00:00Z,28.1910,-88.4960,48.2,6.1,343.0,99.0,'11111222,11111222,11144222' 
ADCP,ioos:station:wmo:42887:1,2013-11-02T08:20:00Z,28.1910,-88.4960,48.2,6.4,344.0,99.0,'11111222,11111222,11144222' 
ADCP,ioos:station:wmo:42887:1,2013-11-02T08:40:00Z,28.1910,-88.4960,48.2,6.5,344.0,99.0,'11111222,11111222,11144222' 
ADCP,ioos:station:wmo:42887:1,2013-11-02T09:00:00Z,28.1910,-88.4960,48.2,6.0,354.0,99.0,'11111222,11111222,11144222' 
ADCP,ioos:station:wmo:42887:1,2013-11-02T09:20:00Z,28.1910,-88.4960,48.2,5.7,355.0,99.0,'11111222,11111222,11144222' 
ADCP,ioos:station:wmo:42887:1,2013-11-02T09:40:00Z,28.1910,-88.4960,48.2,5.6,354.0,99.0,'11111222,11111222,11144222' 
ADCP,ioos:station:wmo:42887:1,2013-11-02T10:00:00Z,28.1910,-88.4960,48.2,5.9,5.0,99.0,'11111222,11111222,11144222' 
ADCP,ioos:station:wmo:42887:1,2013-11-02T10:20:00Z,28.1910,-88.4960,48.2,6.3,355.0,99.0,'11111222,11111222,11144222' 
ADCP,ioos:station:wmo:42887:1,2013-11-02T10:40:00Z,28.1910,-88.4960,48.2,5.2,350.0,99.0,'11111222,11111222,11144222' 
ADCP,ioos:station:wmo:42887:1,2013-11-02T11:00:00Z,28.1910,-88.4960,48.2,5.6,356.0,99.0,'11111222,11111222,11144222' 
ADCP,ioos:station:wmo:42887:1,2013-11-02T11:20:00Z,28.1910,-88.4960,48.2,5.2,358.0,99.0,'11111222,11111222,11144222' 
ADCP,ioos:station:wmo:42887:1,2013-11-02T11:40:00Z,28.1910,-88.4960,48.2,5.7,347.0,99.0,'11111222,11111222,11144222' 
ADCP,ioos:station:wmo:42887:1,2013-11-02T12:00:00Z,28.1910,-88.4960,48.2,6.0,12.0,99.0,'11111222,11111222,11144222' 
ADCP,ioos:station:wmo:42887:1,2013-11-02T12:20:00Z,28.1910,-88.4960,48.2,6.6,356.0,99.0,'11111222,11111222,11144222' 
ADCP,ioos:station:wmo:42887:1,2013-11-02T12:40:00Z,28.1910,-88.4960,48.2,6.1,12.0,99.0,'11111222,11111222,11144222' 
ADCP,ioos:station:wmo:42887:1,2013-11-02T13:00:00Z,28.1910,-88.4960,48.2,5.7,6.0,99.0,'11111222,11111222,11144222' 
ADCP,ioos:station:wmo:42887:1,2013-11-02T13:20:00Z,28.1910,-88.4960,48.2,4.8,8.0,99.0,'11111222,11111222,11144222' 
ADCP,ioos:station:wmo:42887:1,2013-11-02T13:40:00Z,28.1910,-88.4960,48.2,7.9,351.0,99.0,'11111222,11111222,11144222' 
ADCP,ioos:station:wmo:42887:1,2013-11-02T14:00:00Z,28.1910,-88.4960,48.2,6.8,2.0,99.0,'11111222,11111222,11144222' 
ADCP,ioos:station:wmo:42887:1,2013-11-02T14:20:00Z,28.1910,-88.4960,48.2,5.7,13.0,99.0,'11111222,11111222,11144222' 
ADCP,ioos:station:wmo:42887:1,2013-11-02T14:40:00Z,28.1910,-88.4960,48.2,4.5,4.0,99.0,'11111222,11111222,11144222' 
ADCP,ioos:station:wmo:42887:1,2013-11-02T15:00:00Z,28.1910,-88.4960,48.2,6.4,19.0,99.0,'11111222,11111222,11144222' 
ADCP,ioos:station:wmo:42887:1,2013-11-02T15:20:00Z,28.1910,-88.4960,48.2,6.5,8.0,99.0,'11111222,11111222,11144222' 
ADCP,ioos:station:wmo:42887:1,2013-11-02T15:40:00Z,28.1910,-88.4960,48.2,6.2,5.0,99.0,'11111222,11111222,11144222' 
ADCP,ioos:station:wmo:42887:1,2013-11-02T16:00:00Z,28.1910,-88.4960,48.2,5.2,358.0,99.0,'11111222,11111222,11144222' 
ADCP,ioos:station:wmo:42887:1,2013-11-02T16:20:00Z,28.1910,-88.4960,48.2,5.6,358.0,99.0,'11111222,11111222,11144222' 
ADCP,ioos:station:wmo:42887:1,2013-11-02T16:40:00Z,28.1910,-88.4960,48.2,4.5,10.0,99.0,'11111222,11111222,11144222' 
ADCP,ioos:station:wmo:42887:1,2013-11-02T17:00:00Z,28.1910,-88.4960,48.2,4.3,8.0,99.0,'11111222,11111222,11144222' 
ADCP,ioos:station:wmo:42887:1,2013-11-02T17:20:00Z,28.1910,-88.4960,48.2,4.8,5.0,99.0,'11111222,11111222,11144222' 
ADCP,ioos:station:wmo:42887:1,2013-11-02T17:40:00Z,28.1910,-88.4960,48.2,5.2,3.0,99.0,'11111222,11111222,11144222' 
ADCP,ioos:station:wmo:42887:1,2013-11-02T18:00:00Z,28.1910,-88.4960,48.2,5.7,7.0,99.0,'11111222,11111222,11144222' 
ADCP,ioos:station:wmo:42887:1,2013-11-02T18:20:00Z,28.1910,-88.4960,48.2,4.4,6.0,99.0,'11111222,11111222,11144222' 
ADCP,ioos:station:wmo:42887:1,2013-11-02T18:40:00Z,28.1910,-88.4960,48.2,6.1,9.0,99.0,'11111222,11111222,11144222' 
ADCP,ioos:station:wmo:42887:1,2013-11-02T19:00:00Z,28.1910,-88.4960,48.2,4.4,16.0,99.0,'11111222,11111222,11144222' 
ADCP,ioos:station:wmo:42887:1,2013-11-02T19:20:00Z,28.1910,-88.4960,48.2,5.7,15.0,99.0,'11111222,11111222,11144222' 
ADCP,ioos:station:wmo:42887:1,2013-11-02T19:40:00Z,28.1910,-88.4960,48.2,5.9,20.0,99.0,'11111222,11111222,11144222' 
ADCP,ioos:station:wmo:42887:1,2013-11-02T20:00:00Z,28.1910,-88.4960,48.2,5.5,6.0,99.0,'11111222,11111222,11144222' 
ADCP,ioos:station:wmo:42887:1,2013-11-02T20:20:00Z,28.1910,-88.4960,48.2,5.9,25.0,99.0,'11111222,11111222,11144222' 
ADCP,ioos:station:wmo:42887:1,2013-11-02T20:40:00Z,28.1910,-88.4960,48.2,4.4,4.0,99.0,'11111222,11111222,11144222' 
ADCP,ioos:station:wmo:42887:1,2013-11-02T21:00:00Z,28.1910,-88.4960,48.2,4.9,12.0,99.0,'11111222,11111222,11144222' 
ADCP,ioos:station:wmo:42887:1,2013-11-02T21:20:00Z,28.1910,-88.4960,48.2,4.3,8.0,99.0,'11111222,11111222,11144222' 
ADCP,ioos:station:wmo:42887:1,2013-11-02T21:40:00Z,28.1910,-88.4960,48.2,5.4,17.0,99.0,'11111222,11111222,11144222' 
ADCP,ioos:station:wmo:42887:1,2013-11-02T22:00:00Z,28.1910,-88.4960,48.2,5.8,13.0,99.0,'11111222,11111222,11144222' 
ADCP,ioos:station:wmo:42887:1,2013-11-02T22:20:00Z,28.1910,-88.4960,48.2,4.7,10.0,99.0,'11111222,11111222,11144222' 
ADCP,ioos:station:wmo:42887:1,2013-11-02T22:40:00Z,28.1910,-88.4960,48.2,5.3,357.0,99.0,'11111222,11111222,11144222' 
ADCP,ioos:station:wmo:42887:1,2013-11-02T23:00:00Z,28.1910,-88.4960,48.2,5.4,3.0,99.0,'11111222,11111222,11144222' 
ADCP,ioos:station:wmo:42887:1,2013-11-02T23:20:00Z,28.1910,-88.4960,48.2,5.1,357.0,99.0,'11111222,11111222,11144222' 
ADCP,ioos:station:wmo:42887:1,2013-11-02T23:40:00Z,28.1910,-88.4960,48.2,5.0,340.0,99.0,'11111222,11111222,11144222' 
ADCP,ioos:station:wmo:42887:1,2013-11-03T00:00:00Z,28.1910,-88.4960,48.2,6.3,358.0,99.0,'11111222,11111222,11144222' 
ADCP,ioos:station:wmo:42887:1,2013-11-03T00:20:00Z,28.1910,-88.4960,48.2,6.1,357.0,99.0,'11111222,11111222,11144222' 
ADCP,ioos:station:wmo:42887:1,2013-11-03T00:40:00Z,28.1910,-88.4960,48.2,5.2,0.0,99.0,'11111222,11111222,11144222' 
ADCP,ioos:station:wmo:42887:1,2013-11-03T01:00:00Z,28.1910,-88.4960,48.2,6.1,348.0,99.0,'11111222,11111222,11144222' 
ADCP,ioos:station:wmo:42887:1,2013-11-03T01:20:00Z,28.1910,-88.4960,48.2,6.6,0.0,99.0,'11111222,11111222,11144222' 
ADCP,ioos:station:wmo:42887:1,2013-11-03T01:40:00Z,28.1910,-88.4960,48.2,5.3,330.0,99.0,'11111222,11111222,11144222' 
ADCP,ioos:station:wmo:42887:1,2013-11-03T02:00:00Z,28.1910,-88.4960,48.2,6.9,348.0,99.0,'11111222,11111222,11144222' 
ADCP,ioos:station:wmo:42887:1,2013-11-03T02:20:00Z,28.1910,-88.4960,48.2,4.9,355.0,99.0,'11111222,11111222,11144222' 
ADCP,ioos:station:wmo:42887:1,2013-11-03T02:40:00Z,28.1910,-88.4960,48.2,7.2,348.0,99.0,'11111222,11111222,11144222' 
ADCP,ioos:station:wmo:42887:1,2013-11-03T03:00:00Z,28.1910,-88.4960,48.2,6.0,352.0,99.0,'11111222,11111222,11144222' 
ADCP,ioos:station:wmo:42887:1,2013-11-03T03:20:00Z,28.1910,-88.4960,48.2,6.1,350.0,99.0,'11111222,11111222,11144222' 
ADCP,ioos:station:wmo:42887:1,2013-11-03T03:40:00Z,28.1910,-88.4960,48.2,6.7,1.0,99.0,'11111222,11111222,11144222' 
ADCP,ioos:station:wmo:42887:1,2013-11-03T04:00:00Z,28.1910,-88.4960,48.2,6.4,336.0,99.0,'11111222,11111222,11144222' 
ADCP,ioos:station:wmo:42887:1,2013-11-03T04:20:00Z,28.1910,-88.4960,48.2,6.4,359.0,99.0,'11111222,11111222,11144222' 
ADCP,ioos:station:wmo:42887:1,2013-11-03T04:40:00Z,28.1910,-88.4960,48.2,8.4,355.0,99.0,'11111222,11111222,11144222' 
ADCP,ioos:station:wmo:42887:1,2013-11-03T05:00:00Z,28.1910,-88.4960,48.2,8.3,350.0,99.0,'11111222,11111222,11144222' 
ADCP,ioos:station:wmo:42887:1,2013-11-03T05:20:00Z,28.1910,-88.4960,48.2,7.6,350.0,99.0,'11111222,11111222,11144222' 
ADCP,ioos:station:wmo:42887:1,2013-11-03T05:40:00Z,28.1910,-88.4960,48.2,8.6,355.0,99.0,'11111222,11111222,11144222' 
ADCP,ioos:station:wmo:42887:1,2013-11-03T06:00:00Z,28.1910,-88.4960,48.2,9.0,4.0,99.0,'11111222,11111222,11144222' 
ADCP,ioos:station:wmo:42887:1,2013-11-03T06:20:00Z,28.1910,-88.4960,48.2,9.0,4.0,99.0,'11111222,11111222,11144222' 
ADCP,ioos:station:wmo:42887:1,2013-11-03T06:40:00Z,28.1910,-88.4960,48.2,9.0,4.0,99.0,'11111222,11111222,11144222' 
ADCP,ioos:station:wmo:42887:1,2013-11-03T07:00:00Z,28.1910,-88.4960,48.2,9.3,10.0,99.0,'11111222,11111222,11144222' 
ADCP,ioos:station:wmo:42887:1,2013-11-03T07:20:00Z,28.1910,-88.4960,48.2,8.9,13.0,99.0,'11111222,11111222,11144222' 
ADCP,ioos:station:wmo:42887:1,2013-11-03T07:40:00Z,28.1910,-88.4960,48.2,8.9,11.0,99.0,'11111222,11111222,11144222' 
ADCP,ioos:station:wmo:42887:1,2013-11-03T08:00:00Z,28.1910,-88.4960,48.2,9.8,16.0,99.0,'11111222,11111222,11144222' 
ADCP,ioos:station:wmo:42887:1,2013-11-03T08:20:00Z,28.1910,-88.4960,48.2,10.3,12.0,99.0,'11111222,11111222,11144222' 
ADCP,ioos:station:wmo:42887:1,2013-11-03T08:40:00Z,28.1910,-88.4960,48.2,10.1,13.0,99.0,'11111222,11111222,11144222' 
ADCP,ioos:station:wmo:42887:1,2013-11-03T09:00:00Z,28.1910,-88.4960,48.2,8.8,21.0,99.0,'11111222,11111222,11144222' 
ADCP,ioos:station:wmo:42887:1,2013-11-03T09:20:00Z,28.1910,-88.4960,48.2,9.8,6.0,99.0,'11111222,11111222,11144222' 
ADCP,ioos:station:wmo:42887:1,2013-11-03T09:40:00Z,28.1910,-88.4960,48.2,8.5,10.0,99.0,'11111222,11111222,11144222' 
ADCP,ioos:station:wmo:42887:1,2013-11-03T10:00:00Z,28.1910,-88.4960,48.2,10.3,15.0,99.0,'11111222,11111222,11144222' 
ADCP,ioos:station:wmo:42887:1,2013-11-03T10:20:00Z,28.1910,-88.4960,48.2,8.6,21.0,99.0,'11111222,11111222,11144222' 
ADCP,ioos:station:wmo:42887:1,2013-11-03T10:40:00Z,28.1910,-88.4960,48.2,9.2,17.0,99.0,'11111222,11111222,11144222' 
ADCP,ioos:station:wmo:42887:1,2013-11-03T11:00:00Z,28.1910,-88.4960,48.2,9.5,18.0,99.0,'11111222,11111222,11144222' 
ADCP,ioos:station:wmo:42887:1,2013-11-03T11:20:00Z,28.1910,-88.4960,48.2,7.6,21.0,99.0,'11111222,11111222,11144222' 
ADCP,ioos:station:wmo:42887:1,2013-11-03T11:40:00Z,28.1910,-88.4960,48.2,7.5,32.0,99.0,'11111222,11111222,11144222' 
ADCP,ioos:station:wmo:42887:1,2013-11-03T12:00:00Z,28.1910,-88.4960,48.2,7.5,24.0,99.0,'11111222,11111222,11144222' 
ADCP,ioos:station:wmo:42887:1,2013-11-03T12:20:00Z,28.1910,-88.4960,48.2,8.4,31.0,99.0,'11111222,11111222,11144222' 
ADCP,ioos:station:wmo:42887:1,2013-11-03T12:40:00Z,28.1910,-88.4960,48.2,7.1,28.0,99.0,'11111222,11111222,11144222' 
ADCP,ioos:station:wmo:42887:1,2013-11-03T13:00:00Z,28.1910,-88.4960,48.2,5.5,32.0,99.0,'11111222,11111222,11144222' 
ADCP,ioos:station:wmo:42887:1,2013-11-03T13:20:00Z,28.1910,-88.4960,48.2,6.5,30.0,99.0,'11111222,11111222,11144222' 
ADCP,ioos:station:wmo:42887:1,2013-11-03T13:40:00Z,28.1910,-88.4960,48.2,6.4,28.0,99.0,'11111222,11111222,11144222' 
ADCP,ioos:station:wmo:42887:1,2013-11-03T14:00:00Z,28.1910,-88.4960,48.2,6.0,36.0,99.0,'11111222,11111222,11144222' 
ADCP,ioos:station:wmo:42887:1,2013-11-03T14:20:00Z,28.1910,-88.4960,48.2,6.1,37.0,99.0,'11111222,11111222,11144222' 
ADCP,ioos:station:wmo:42887:1,2013-11-03T14:40:00Z,28.1910,-88.4960,48.2,6.0,26.0,99.0,'11111222,11111222,11144222' 
ADCP,ioos:station:wmo:42887:1,2013-11-03T15:00:00Z,28.1910,-88.4960,48.2,6.8,34.0,99.0,'11111222,11111222,11144222' 
ADCP,ioos:station:wmo:42887:1,2013-11-03T15:20:00Z,28.1910,-88.4960,48.2,7.6,33.0,99.0,'11111222,11111222,11144222' 
ADCP,ioos:station:wmo:42887:1,2013-11-03T15:40:00Z,28.1910,-88.4960,48.2,6.4,41.0,99.0,'11111222,11111222,11144222' 
ADCP,ioos:station:wmo:42887:1,2013-11-03T16:00:00Z,28.1910,-88.4960,48.2,5.7,40.0,99.0,'11111222,11111222,11144222' 
ADCP,ioos:station:wmo:42887:1,2013-11-03T16:20:00Z,28.1910,-88.4960,48.2,6.1,45.0,99.0,'11111222,11111222,11144222' 
ADCP,ioos:station:wmo:42887:1,2013-11-03T16:40:00Z,28.1910,-88.4960,48.2,6.7,53.0,99.0,'11111222,11111222,11144222' 
ADCP,ioos:station:wmo:42887:1,2013-11-03T17:00:00Z,28.1910,-88.4960,48.2,7.5,39.0,99.0,'11111222,11111222,11144222' 
ADCP,ioos:station:wmo:42887:1,2013-11-03T17:20:00Z,28.1910,-88.4960,48.2,6.9,43.0,99.0,'11111222,11111222,11144222' 
ADCP,ioos:station:wmo:42887:1,2013-11-03T17:40:00Z,28.1910,-88.4960,48.2,4.9,45.0,99.0,'11111222,11111222,11144222' 
ADCP,ioos:station:wmo:42887:1,2013-11-03T18:00:00Z,28.1910,-88.4960,48.2,7.0,34.0,99.0,'11111222,11111222,11144222' 
ADCP,ioos:station:wmo:42887:1,2013-11-03T18:20:00Z,28.1910,-88.4960,48.2,7.2,51.0,99.0,'11111222,11111222,11144222' 
ADCP,ioos:station:wmo:42887:1,2013-11-03T18:40:00Z,28.1910,-88.4960,48.2,4.1,46.0,99.0,'11111222,11111222,11144222' 
ADCP,ioos:station:wmo:42887:1,2013-11-03T19:00:00Z,28.1910,-88.4960,48.2,6.9,47.0,99.0,'11111222,11111222,11144222' 
ADCP,ioos:station:wmo:42887:1,2013-11-03T19:20:00Z,28.1910,-88.4960,48.2,2.1,75.0,99.0,'11111222,11111222,11144222' 